Regional Weather Roundup
Issued by NWS

Home | Current Version | Previous Version | Text Only | Print | Product List | Glossary On
Versions: 1 2 3 4 5 6 7 8 9 10 11 12 13 14 15 16 17 18 19 20 21 22 23 24 25 26 27 28 29 30 31 32 33 34 35 36 37 38 39 40 41 42 43 44 45 46 47 48
000
ASUS45 KREV 051610
RWRNV
NEVADA REGIONAL WEATHER ROUNDUP
NATIONAL WEATHER SERVICE RENO NV
900 AM PDT SAT SEP 05 2015

NOTE: "FAIR" INDICATES FEW OR NO CLOUDS BELOW 12,000 FEET WITH NO
SIGNIFICANT WEATHER AND/OR OBSTRUCTIONS TO VISIBILITY.

NVZ001-003-004-051700-
WESTERN NEVADA

CITY           SKY/WX    TMP DP  RH WIND       PRES   REMARKS
RENO           MOSUNNY   50  26  39 VRB3      30.09R
CARSON CITY    FAIR      52  23  32 CALM      30.07S
MINDEN         FAIR      50  25  37 N13       30.06S
SLIDE MTN        N/A     34   9  35 W16         N/A
PYRAMID LAKE     N/A     52 N/A N/A VRB10       N/A
FALLON         PTSUNNY   55  26  32 N5        30.06R
LOVELOCK       SUNNY     54  30  40 NE9       30.06S
HAWTHORNE      SUNNY     57  27  30 NW10      30.03R
$$

NVZ002-CAZ072-073-051700-
NORTHERN AND CENTRAL SIERRA

CITY           SKY/WX    TMP DP  RH WIND       PRES   REMARKS
S. LAKE TAHOE  SUNNY     57   5  12 S12       30.06R
TRUCKEE        SUNNY     37  18  44 CALM      30.10S
SQUAW VLY 8000   N/A     43  12  28 S6          N/A
SUSANVILLE     SUNNY     46  32  57 CALM      30.10
BLUE CANYON    SUNNY     54  23  30 VRB3      30.08R
MAMMOTH LAKES  FAIR      52  27  37 CALM      30.09S
BRIDGEPORT     FAIR      56   7  14 SW10G21   30.05S
$$

NVZ030-031-036-051700-
NORTHERN NEVADA

CITY           SKY/WX    TMP DP  RH WIND       PRES   REMARKS
ELKO           SUNNY     55  27  34 MISG      30.04R
WINNEMUCCA     SUNNY     50  30  46 VRB6      30.09R
WENDOVER       SUNNY     64  27  24 N10       29.96R
$$

NVZ035-037-051700-
CENTRAL NEVADA

CITY           SKY/WX    TMP DP  RH WIND       PRES   REMARKS
ELY            SUNNY     65  24  21 SW18G26   30.02R
EUREKA           N/A     54  25  32 NE3       30.06R
$$

NVZ013-014-051700-
SOUTH CENTRAL NEVADA

CITY           SKY/WX    TMP DP  RH WIND       PRES   REMARKS
TONOPAH        SUNNY     59  15  18 CALM      30.04R
$$

NVZ017-020-022-051700-
SOUTHERN NEVADA

CITY           SKY/WX    TMP DP  RH WIND       PRES   REMARKS
LAS VEGAS      MOSUNNY   79  35  20 S10       29.86R
N. LAS VEGAS   SUNNY     80  35  19 S13       29.88R
NELLIS AFB     SUNNY     80  39  22 S12       29.87R
HENDERSON      NOT AVBL
MERCURY        SUNNY     75  27  17 SW17      29.92R
$$



USA.gov is the U.S. government's official web portal to all federal, state and local government web resources and services.